DIAMANT DEB, 2685

Orbit data source: Space-Track

DIAMANT DEB, 2685 is space debris in LEO originally from a launch on Wed, 15 Feb 1967 UTC launched from the Hamma Guira Space Track Range (HGSTR). Debris objects in space refer to the collection of defunct objects orbiting the Earth. Examples of debris include non-operational satellites, rocket bodies, and fragments generated from explosions, collisions, or faulty payload assembly.

Loading next visibility...
DIAMANT DEB details
Identifier
2685, 1967-014F
Orbit
LEO
Last TLE update1 day ago
Origin
Flag of FRCNES (FR)
ManufacturerUnknown
MissionSpacecraft
Bus & MotorUnknown
MassUnknown
Launch date (UTC)
1967-02-15 (58 years ago)
Launch vehicleUnknown
Launch site
Hamma Guira Space Track Range (HGSTR)
Object type
Payload
Rocket body
Debris
Shape & HBRUnknown
Radar Cross SectionSmall (<0.1 m²)

Expand to show TLE details & history

TLE from 1 day ago
0 DIAMANT DEB
1 02685U 67014F   24355.48504573  .00009624  00000-0  17496-2 0  9994
2 02685  38.9330  54.0076 0371850 345.7691  13.2816 14.29740681889435
Epoch: 2024-12-20T11:38Z
Definitive object data (Epoch: 2024-12-20T11:38:27.951Z)
Latitude-0.00003°
Longitude149.84122°
Altitude533.04 km
Speed7.734 km/s
True Right ascension03h 36m 01s
True Declination0° 00' 00"
Sunlit
Object was in full shadow at TLE epoch
Visualization TLE readout
Latitude-3.53425°
Longitude140.07377°
Altitude525.965 km
Speed7.741 km/s
Apparent Right ascension01h 39m 18s
Apparent Declination-22° 32' 12"
Sunlit
Object is in full shadow
Visualization observer readout
Local Sidereal Time11:47:47
Azimuth298.029° NW
Elevation-60.708°
Doppler factor1
Orbital elements
Apogee altitude1,061.849 km
Perigee altitude528.374 km
Semi-major axis7,173.249 km
Eccentricity0.037185
Inclination38.933°
RAAN54.0076°
Arg. of periapsis345.7691°
True anomaly14.30676°
Mean anomaly13.2816°
Eccentric anomaly13.78942°
Mean motion3.57248 °/min
BSTAR0.0017496
Orbital period100.77 mins
Loading maneuver chart data...
Loading historical data...
Loading historical data...
Loading historical data...
Loading historical data...
Loading historical data...
Loading historical data...
Loading historical data...

DIAMANT DEB Visibility forecast

Observer location: undefined°, undefined

Span
Click to sort rows by Start time (UTC) header in descending order
Start Az.
Max El. time (UTC)
Max El. Az.
Max El.
End time (UTC)
End Az.
10 mins2024-12-21 13:16:56.250Z265.827° W2024-12-21 13:21:56.250Z200.455° SSW29.095°2024-12-21 13:26:56.250Z148.695° SSE
7 mins2024-12-22 07:27:56.250Z213.931° SW2024-12-22 07:30:56.250Z145.594° SSE32.506°2024-12-22 07:34:56.250Z89.278° E
9 mins2024-12-22 09:12:56.250Z258.18° W2024-12-22 09:16:56.250Z133.282° SE44°2024-12-22 09:21:56.250Z88.895° E
10 mins2024-12-22 10:58:56.250Z271.936° WNW2024-12-22 11:02:56.250Z196.345° SSW43.364°2024-12-22 11:08:56.250Z109.481° ESE
|